Custer, SD

8:40 AM MDT on May 25, 2017 (GMT -0600)
Custer County

Weather History for KCUT - April, 2013

Change the Weather History Date:

Wednesday, April 17, 2013

  Actual Average Record
Temperature  
Mean Temperature 18 °F 40 °F  
Max Temperature 23 °F 51 °F 75 °F (2005)
Min Temperature 12 °F 28 °F 7 °F (1961)
Degree Days  
Heating Degree Days 47 25  
Month to date heating degree days 596 473  
Since 1 July heating degree days 7223 7348  
Cooling Degree Days 0 0  
Month to date cooling degree days 0 0  
Year to date cooling degree days 0 0  
Moisture  
Dew Point 15 °F    
Average Humidity 83    
Maximum Humidity 92    
Minimum Humidity 74    
Precipitation  
Precipitation 0.12 in 0.07 in 0.69 in (1986)
Month to date precipitation 1.73 1.06  
Year to date precipitation 3.40 2.93  
Sea Level Pressure  
Sea Level Pressure 30.10 in    
Wind  
Wind Speed 7 mph (NE)    
Max Wind Speed 16 mph    
Max Gust Speed 20 mph    
Visibility 3 miles    
Events Snow    
T = Trace of Precipitation, MM = Missing Value Source: NWS Daily Summary

Daily Weather History Graph

Daily Weather History Graph

Search for Another Location

Airport or City:

Trip Planner

Search our weather history database for the weather conditions in past years. The results will help you decide how hot, cold, wet, or windy it might be!

Date:

Astronomy

Apr. 17, 2013 Rise Set
Actual Time 6:07 AM MDT 7:40 PM MDT
Civil Twilight 5:37 AM MDT 8:11 PM MDT
Nautical Twilight 5:01 AM MDT 8:47 PM MDT
Astronomical Twilight 4:22 AM MDT 9:26 PM MDT
Moon 11:20 AM MDT (4/17) 1:24 AM MDT (4/17)
Length of Visible Light 14h 33m
Length of Day
13h 33m
Waxing Crescent, 43% of the Moon is Illuminated
Apr 17
Waxing Crescent
Apr 18
First Quarter
Apr 25
Full
May 2
Last Quarter
May 9
New

Hourly Weather History & Observations

Time (MDT) Temp. Windchill Dew Point Humidity Pressure Visibility Wind Dir Wind Speed Gust Speed Precip Events Conditions
12:07 AM 19.4 °F 14.3 °F 15.8 °F 86% 30.11 in 1.2 mi Variable 3.5 mph - 0.00 in Snow Light Snow
12:32 AM 19.4 °F 11.5 °F 15.8 °F 86% 30.09 in 0.8 mi Variable 5.8 mph - 0.02 in Snow Light Snow
12:53 AM 19.0 °F 13.9 °F 16.0 °F 88% 30.27 in 1.0 mi NNE 3.5 mph - 0.03 in Snow Light Snow
1:36 AM 19.4 °F 12.8 °F 15.8 °F 86% 30.08 in 2.0 mi Variable 4.6 mph - 0.01 in Snow Light Snow
1:53 AM 19.0 °F 12.3 °F 16.0 °F 88% 30.25 in 2.0 mi Variable 4.6 mph - 0.01 in Snow Light Snow
2:02 AM 19.4 °F 12.8 °F 15.8 °F 86% 30.07 in 1.8 mi NNE 4.6 mph - 0.00 in Snow Light Snow
2:37 AM 17.6 °F 9.3 °F 15.8 °F 93% 30.06 in 2.0 mi NE 5.8 mph - 0.00 in Snow Light Snow
2:53 AM 19.0 °F 12.3 °F 16.0 °F 88% 30.23 in 2.5 mi NNE 4.6 mph - 0.00 in Snow Light Snow
3:14 AM 19.4 °F 12.8 °F 15.8 °F 86% 30.06 in 1.8 mi NE 4.6 mph - 0.01 in Snow Light Snow
3:53 AM 18.0 °F 7.7 °F 15.1 °F 88% 30.21 in 1.2 mi NE 8.1 mph - 0.02 in Snow Light Snow
4:22 AM 17.6 °F 7.3 °F 15.8 °F 93% 30.03 in 2.0 mi NE 8.1 mph - 0.00 in Snow Light Snow
4:43 AM 17.6 °F 7.3 °F 15.8 °F 93% 30.04 in 1.5 mi NE 8.1 mph - 0.01 in Snow Light Snow
4:53 AM 18.0 °F 7.7 °F 15.1 °F 88% 30.22 in 1.5 mi ENE 8.1 mph - 0.01 in Snow Light Snow
5:53 AM 18.0 °F 8.7 °F 14.0 °F 84% 30.20 in 1.5 mi NE 6.9 mph - 0.01 in Snow Light Snow
6:05 AM 17.6 °F 8.2 °F 14.0 °F 86% 30.03 in 2.0 mi ENE 6.9 mph - 0.00 in Snow Light Snow
6:37 AM 17.6 °F 9.3 °F 14.0 °F 86% 30.04 in 1.5 mi ENE 5.8 mph - 0.01 in Snow Light Snow
6:53 AM 18.0 °F 11.1 °F 14.0 °F 84% 30.22 in 1.2 mi NE 4.6 mph - 0.01 in Snow Light Snow
7:08 AM 17.6 °F 8.2 °F 14.0 °F 86% 30.04 in 1.2 mi NE 6.9 mph - 0.00 in Snow Light Snow
7:25 AM 17.6 °F 9.3 °F 14.0 °F 86% 30.05 in 1.2 mi NE 5.8 mph - 0.01 in Snow Light Snow
7:53 AM 18.0 °F 7.7 °F 15.1 °F 88% 30.24 in 1.5 mi NE 8.1 mph - 0.01 in Snow Light Snow
8:16 AM 19.4 °F 10.4 °F 14.0 °F 80% 30.05 in 1.0 mi NE 6.9 mph - 0.00 in Snow Light Snow
8:53 AM 19.0 °F 10.0 °F 15.1 °F 85% 30.23 in 1.5 mi ENE 6.9 mph - 0.00 in Snow Light Snow
9:11 AM 19.4 °F 10.4 °F 15.8 °F 86% 30.04 in 2.0 mi NE 6.9 mph - 0.00 in Snow Light Snow
9:36 AM 19.4 °F 9.5 °F 15.8 °F 86% 30.03 in 1.5 mi ENE 8.1 mph - 0.01 in   Overcast
9:49 AM 21.2 °F 9.5 °F 15.8 °F 80% 30.02 in 1.5 mi ENE 11.5 mph - 0.01 in   Haze
9:53 AM 21.0 °F 8.6 °F 16.0 °F 81% 30.19 in 1.5 mi ENE 12.7 mph - 0.01 in   Haze
10:10 AM 21.2 °F 10.9 °F 15.8 °F 80% 30.03 in 2.0 mi ENE 9.2 mph - N/A   Haze
10:36 AM 21.2 °F 8.9 °F 15.8 °F 80% 30.03 in 4.0 mi NE 12.7 mph - N/A   Haze
10:51 AM 21.2 °F 9.5 °F 15.8 °F 80% 30.03 in 5.0 mi ENE 11.5 mph - N/A   Haze
10:53 AM 21.9 °F 9.8 °F 16.0 °F 78% 30.19 in 5.0 mi ENE 12.7 mph - N/A   Haze
11:05 AM 21.2 °F 8.9 °F 15.8 °F 80% 30.02 in 2.5 mi NE 12.7 mph - 0.00 in Snow Light Snow
11:15 AM 21.2 °F 9.5 °F 15.8 °F 80% 30.02 in 1.8 mi NE 11.5 mph - 0.00 in Snow Light Snow
11:24 AM 21.2 °F 8.3 °F 15.8 °F 80% 30.01 in 1.2 mi NE 13.8 mph - 0.00 in Snow Light Snow
11:32 AM 21.2 °F 9.5 °F 15.8 °F 80% 30.01 in 1.5 mi NE 11.5 mph - 0.00 in Snow Light Snow
11:53 AM 21.0 °F 8.6 °F 16.0 °F 81% 30.18 in 2.0 mi NE 12.7 mph - 0.00 in Snow Light Snow
12:15 PM 21.2 °F 10.9 °F 15.8 °F 80% 30.02 in 4.0 mi NE 9.2 mph - 0.00 in Snow Light Snow
12:34 PM 21.2 °F 10.1 °F 15.8 °F 80% 30.02 in 1.8 mi ENE 10.4 mph - 0.00 in Snow Light Snow
12:45 PM 21.2 °F 12.6 °F 15.8 °F 80% 30.03 in 0.8 mi ENE 6.9 mph - 0.00 in Snow Light Snow
12:53 PM 21.0 °F 10.6 °F 16.0 °F 81% 30.20 in 0.8 mi ENE 9.2 mph - 0.00 in Snow Light Snow
1:53 PM 21.9 °F 14.5 °F 16.0 °F 78% 30.19 in 0.8 mi Variable 5.8 mph - 0.02 in Snow Light Snow
2:05 PM 21.2 °F 13.6 °F 15.8 °F 80% 30.02 in 1.0 mi NNE 5.8 mph - 0.00 in Snow Light Snow
2:45 PM 21.2 °F 13.6 °F 15.8 °F 80% 30.03 in 2.0 mi Variable 5.8 mph - 0.01 in Snow Light Snow
2:53 PM 21.9 °F 17.2 °F 15.1 °F 75% 30.18 in 2.0 mi North 3.5 mph - 0.01 in Snow Light Snow
3:17 PM 23.0 °F 18.4 °F 15.8 °F 74% 30.02 in 1.5 mi Variable 3.5 mph - 0.00 in Snow Light Snow
3:53 PM 21.9 °F 12.5 °F 15.1 °F 75% 30.19 in 2.5 mi North 8.1 mph - 0.01 in Snow Light Snow
4:00 PM 21.2 °F 13.6 °F 14.0 °F 74% 30.02 in 5.0 mi NNW 5.8 mph - 0.00 in Snow Light Snow
4:20 PM 21.2 °F 11.7 °F 14.0 °F 74% 30.01 in 9.0 mi NNE 8.1 mph - 0.00 in   Overcast
4:53 PM 21.9 °F 13.4 °F 14.0 °F 72% 30.19 in 10.0 mi Variable 6.9 mph - 0.00 in   Overcast
5:07 PM 21.2 °F 13.6 °F 14.0 °F 74% 30.02 in 10.0 mi Variable 5.8 mph - N/A   Overcast
5:22 PM 21.2 °F 9.5 °F 14.0 °F 74% 30.03 in 10.0 mi NNE 11.5 mph - N/A   Overcast
5:42 PM 21.2 °F 14.9 °F 14.0 °F 74% 30.04 in 10.0 mi North 4.6 mph - N/A   Overcast
5:53 PM 21.9 °F 14.5 °F 14.0 °F 72% 30.22 in 8.0 mi North 5.8 mph - 0.00 in Snow Light Snow
6:15 PM 21.2 °F 14.9 °F 14.0 °F 74% 30.04 in 2.5 mi Variable 4.6 mph - 0.00 in Snow Light Snow
6:25 PM 21.2 °F 14.9 °F 15.8 °F 80% 30.04 in 1.2 mi Variable 4.6 mph - 0.00 in Snow Light Snow
6:53 PM 19.9 °F 11.1 °F 15.1 °F 81% 30.22 in 2.0 mi NNE 6.9 mph - 0.00 in Snow Light Snow
7:04 PM 19.4 °F - 15.8 °F 86% 30.04 in 3.0 mi Calm Calm - 0.00 in Snow Light Snow
7:34 PM 19.4 °F 14.3 °F 14.0 °F 80% 30.05 in 2.5 mi Variable 3.5 mph - 0.00 in Snow Light Snow
7:41 PM 19.4 °F 11.5 °F 15.8 °F 86% 30.05 in 3.0 mi Variable 5.8 mph - 0.00 in Snow Light Snow
7:53 PM 19.0 °F 12.3 °F 14.0 °F 81% 30.21 in 9.0 mi North 4.6 mph - 0.00 in   Overcast
8:02 PM 19.4 °F 12.8 °F 14.0 °F 80% 30.04 in 5.0 mi Variable 4.6 mph - 0.00 in Snow Light Snow
8:22 PM 17.6 °F 10.7 °F 12.2 °F 79% 30.06 in 9.0 mi NNW 4.6 mph - 0.00 in   Overcast
8:53 PM 18.0 °F 11.1 °F 10.9 °F 74% 30.26 in 10.0 mi Variable 4.6 mph - 0.00 in   Overcast
9:53 PM 16.0 °F 8.8 °F 10.0 °F 77% 30.26 in 10.0 mi Variable 4.6 mph - N/A   Overcast
10:53 PM 14.0 °F 6.5 °F 9.0 °F 80% 30.24 in 10.0 mi NNW 4.6 mph - N/A   Overcast
11:53 PM 14.0 °F 5.1 °F 8.1 °F 77% 30.22 in 10.0 mi WNW 5.8 mph - N/A   Mostly Cloudy